Time,TemperatureF,DewpointF,PressureIn,WindDirection,WindDirectionDegrees,WindSpeedMPH,WindSpeedGustMPH,Humidity,HourlyPrecipIn,Conditions,Clouds,dailyrainin,SoftwareType,DateUTC
2013-04-27 00:01:00,47.0,26.0,-100.00,ESE,102,2.0,5.0,44,0.00,,,0.00,,2013-04-27 06:01:00,
2013-04-27 00:12:00,47.0,26.0,-100.00,ESE,102,2.0,5.0,44,0.00,,,0.00,,2013-04-27 06:12:00,
2013-04-27 00:41:00,49.0,27.0,-100.00,SSE,158,7.0,11.0,42,0.00,,,0.00,,2013-04-27 06:41:00,
2013-04-27 00:52:00,49.0,27.0,-100.00,SSE,158,7.0,11.0,42,0.00,,,0.00,,2013-04-27 06:52:00,
2013-04-27 01:01:00,49.0,27.0,-100.00,SSE,158,7.0,11.0,42,0.00,,,0.00,,2013-04-27 07:01:00,
2013-04-27 01:11:00,49.0,27.0,-100.00,SSE,158,7.0,11.0,42,0.00,,,0.00,,2013-04-27 07:11:00,
2013-04-27 01:42:00,48.0,28.0,-100.00,SW,224,9.0,18.0,46,0.00,,,-99.99,,2013-04-27 07:42:00,
2013-04-27 01:52:00,48.0,28.0,-100.00,SW,224,9.0,18.0,46,0.00,,,-99.99,,2013-04-27 07:52:00,
2013-04-27 02:01:00,48.0,28.0,-100.00,SW,224,9.0,18.0,46,0.00,,,-99.99,,2013-04-27 08:01:00,
2013-04-27 02:11:00,48.0,28.0,-100.00,SW,224,9.0,18.0,46,0.00,,,-99.99,,2013-04-27 08:11:00,
2013-04-27 02:41:00,49.0,29.0,-100.00,SW,216,12.0,17.0,46,0.01,,,0.00,,2013-04-27 08:41:00,
2013-04-27 02:52:00,49.0,29.0,-100.00,SW,216,12.0,17.0,46,0.01,,,0.00,,2013-04-27 08:52:00,
2013-04-27 03:01:00,49.0,29.0,-100.00,SW,216,12.0,17.0,46,0.01,,,0.00,,2013-04-27 09:01:00,
2013-04-27 03:11:00,49.0,29.0,-100.00,SW,216,12.0,17.0,46,0.01,,,0.00,,2013-04-27 09:11:00,
2013-04-27 03:42:00,43.0,28.0,-100.00,SSW,209,11.0,19.0,54,0.00,,,0.00,,2013-04-27 09:42:00,
2013-04-27 03:53:00,43.0,28.0,-100.00,SSW,209,11.0,19.0,54,0.00,,,0.00,,2013-04-27 09:53:00,
2013-04-27 04:02:00,43.0,28.0,-100.00,SSW,209,11.0,19.0,54,0.00,,,0.00,,2013-04-27 10:02:00,
2013-04-27 04:12:00,43.0,28.0,-100.00,SSW,209,11.0,19.0,54,0.00,,,0.00,,2013-04-27 10:12:00,
2013-04-27 04:42:00,44.0,28.0,-100.00,South,179,11.0,18.0,54,0.00,,,0.00,,2013-04-27 10:42:00,
2013-04-27 04:52:00,44.0,28.0,-100.00,South,179,11.0,18.0,54,0.00,,,0.00,,2013-04-27 10:52:00,
2013-04-27 05:02:00,44.0,28.0,-100.00,South,179,11.0,18.0,54,0.00,,,0.00,,2013-04-27 11:02:00,
2013-04-27 05:11:00,44.0,28.0,-100.00,South,179,11.0,18.0,54,0.00,,,0.00,,2013-04-27 11:11:00,
2013-04-27 05:41:00,44.0,28.0,-100.00,SSW,195,13.0,21.0,55,0.00,,,0.00,,2013-04-27 11:41:00,
2013-04-27 05:52:00,44.0,28.0,-100.00,SSW,195,13.0,21.0,55,0.00,,,0.00,,2013-04-27 11:52:00,
2013-04-27 06:01:00,44.0,28.0,-100.00,SSW,195,13.0,21.0,55,0.00,,,0.00,,2013-04-27 12:01:00,
2013-04-27 06:11:00,44.0,28.0,-100.00,SSW,195,13.0,21.0,55,0.00,,,0.00,,2013-04-27 12:11:00,
2013-04-27 06:42:00,44.0,28.0,-100.00,SSW,206,12.0,23.0,53,0.00,,,0.00,,2013-04-27 12:42:00,
2013-04-27 06:52:00,44.0,28.0,-100.00,SSW,206,12.0,23.0,53,0.00,,,0.00,,2013-04-27 12:52:00,
2013-04-27 07:01:00,44.0,28.0,-100.00,SSW,206,12.0,23.0,53,0.00,,,0.00,,2013-04-27 13:01:00,
2013-04-27 07:11:00,44.0,28.0,-100.00,SSW,206,12.0,23.0,53,0.00,,,0.00,,2013-04-27 13:11:00,
2013-04-27 07:41:00,44.0,29.0,-100.00,SSW,199,10.0,16.0,55,0.00,,,0.00,,2013-04-27 13:41:00,
2013-04-27 07:52:00,44.0,29.0,-100.00,SSW,199,10.0,16.0,55,0.00,,,0.00,,2013-04-27 13:52:00,
2013-04-27 08:02:00,44.0,29.0,-100.00,SSW,199,10.0,16.0,55,0.00,,,0.00,,2013-04-27 14:02:00,
2013-04-27 08:11:00,44.0,29.0,-100.00,SSW,199,10.0,16.0,55,0.00,,,0.00,,2013-04-27 14:11:00,
2013-04-27 09:42:00,58.0,28.0,-100.00,South,188,18.0,25.0,32,-99.99,,,0.00,,2013-04-27 15:42:00,
2013-04-27 09:53:00,58.0,28.0,-100.00,South,188,18.0,25.0,32,-99.99,,,0.00,,2013-04-27 15:53:00,
2013-04-27 10:02:00,58.0,28.0,-100.00,South,188,18.0,25.0,32,-99.99,,,0.00,,2013-04-27 16:02:00,
2013-04-27 10:13:00,58.0,28.0,-100.00,South,188,18.0,25.0,32,-99.99,,,0.00,,2013-04-27 16:13:00,
2013-04-27 10:42:00,62.0,24.0,-100.00,WSW,243,20.0,29.0,23,0.00,,,0.00,,2013-04-27 16:42:00,
2013-04-27 10:53:00,62.0,24.0,-100.00,WSW,243,20.0,29.0,23,0.00,,,0.00,,2013-04-27 16:53:00,
2013-04-27 11:02:00,62.0,24.0,-100.00,WSW,243,20.0,29.0,23,0.00,,,0.00,,2013-04-27 17:02:00,
2013-04-27 11:11:00,62.0,24.0,-100.00,WSW,243,20.0,29.0,23,0.00,,,0.00,,2013-04-27 17:11:00,
2013-04-27 11:42:00,64.0,21.0,-100.00,WSW,245,19.0,33.0,19,0.00,,,0.00,,2013-04-27 17:42:00,
2013-04-27 11:53:00,64.0,21.0,-100.00,WSW,245,19.0,33.0,19,0.00,,,0.00,,2013-04-27 17:53:00,
2013-04-27 12:02:00,64.0,21.0,-100.00,WSW,245,19.0,33.0,19,0.00,,,0.00,,2013-04-27 18:02:00,
2013-04-27 12:11:00,64.0,21.0,-100.00,WSW,245,19.0,33.0,19,0.00,,,0.00,,2013-04-27 18:11:00,
2013-04-27 12:41:00,67.0,21.0,-100.00,WSW,242,18.0,29.0,17,0.00,,,0.00,,2013-04-27 18:41:00,
2013-04-27 12:52:00,67.0,21.0,-100.00,WSW,242,18.0,29.0,17,0.00,,,0.00,,2013-04-27 18:52:00,
2013-04-27 13:02:00,67.0,21.0,-100.00,WSW,242,18.0,29.0,17,0.00,,,0.00,,2013-04-27 19:02:00,
2013-04-27 13:11:00,67.0,21.0,-100.00,WSW,242,18.0,29.0,17,0.00,,,0.00,,2013-04-27 19:11:00,
2013-04-27 13:42:00,66.0,19.0,-100.00,West,264,20.0,32.0,16,0.00,,,0.00,,2013-04-27 19:42:00,
2013-04-27 13:53:00,66.0,19.0,-100.00,West,264,20.0,32.0,16,0.00,,,0.00,,2013-04-27 19:53:00,
2013-04-27 14:02:00,66.0,19.0,-100.00,West,264,20.0,32.0,16,0.00,,,0.00,,2013-04-27 20:02:00,
2013-04-27 14:11:00,66.0,19.0,-100.00,West,264,20.0,32.0,16,0.00,,,0.00,,2013-04-27 20:11:00,
2013-04-27 15:42:00,64.0,17.0,-100.00,WSW,244,14.0,23.0,16,0.00,,,0.00,,2013-04-27 21:42:00,
2013-04-27 15:53:00,64.0,17.0,-100.00,WSW,244,14.0,23.0,16,0.00,,,0.00,,2013-04-27 21:53:00,
2013-04-27 16:02:00,64.0,17.0,-100.00,WSW,244,14.0,23.0,16,0.00,,,0.00,,2013-04-27 22:02:00,
2013-04-27 16:12:00,64.0,17.0,-100.00,WSW,244,14.0,23.0,16,0.00,,,0.00,,2013-04-27 22:12:00,
2013-04-27 16:42:00,64.0,16.0,-100.00,SW,234,18.0,29.0,15,0.00,,,0.00,,2013-04-27 22:42:00,
2013-04-27 16:52:00,64.0,16.0,-100.00,SW,234,18.0,29.0,15,0.00,,,0.00,,2013-04-27 22:52:00,
2013-04-27 17:02:00,64.0,16.0,-100.00,SW,234,18.0,29.0,15,0.00,,,0.00,,2013-04-27 23:02:00,
2013-04-27 17:11:00,64.0,16.0,-100.00,SW,234,18.0,29.0,15,0.00,,,0.00,,2013-04-27 23:11:00,
2013-04-27 17:42:00,66.0,16.0,-100.00,WSW,241,15.0,37.0,14,0.00,,,0.00,,2013-04-27 23:42:00,
2013-04-27 17:52:00,66.0,16.0,-100.00,WSW,241,15.0,37.0,14,0.00,,,0.00,,2013-04-27 23:52:00,
2013-04-27 18:01:00,66.0,16.0,-100.00,WSW,241,15.0,37.0,14,0.00,,,0.00,,2013-04-28 00:01:00,
2013-04-27 18:11:00,66.0,16.0,-100.00,WSW,241,15.0,37.0,14,0.00,,,0.00,,2013-04-28 00:11:00,
2013-04-27 18:42:00,66.0,14.0,-100.00,WSW,249,12.0,27.0,13,0.00,,,0.00,,2013-04-28 00:42:00,
2013-04-27 18:52:00,66.0,14.0,-100.00,WSW,249,12.0,27.0,13,0.00,,,0.00,,2013-04-28 00:52:00,
2013-04-27 19:01:00,66.0,14.0,-100.00,WSW,249,12.0,27.0,13,0.00,,,0.00,,2013-04-28 01:01:00,
2013-04-27 19:11:00,66.0,14.0,-100.00,WSW,249,12.0,27.0,13,0.00,,,0.00,,2013-04-28 01:11:00,
2013-04-27 19:42:00,65.0,16.0,-100.00,NNE,22,5.0,11.0,15,0.00,,,-99.99,,2013-04-28 01:42:00,
2013-04-27 19:52:00,65.0,16.0,-100.00,NNE,22,5.0,11.0,15,0.00,,,-99.99,,2013-04-28 01:52:00,
2013-04-27 20:01:00,65.0,16.0,-100.00,NNE,22,5.0,11.0,15,0.00,,,-99.99,,2013-04-28 02:01:00,
2013-04-27 20:11:00,65.0,16.0,-100.00,NNE,22,5.0,11.0,15,0.00,,,-99.99,,2013-04-28 02:11:00,
2013-04-27 20:42:00,61.0,20.0,-100.00,South,188,10.0,36.0,20,0.00,,,0.00,,2013-04-28 02:42:00,
2013-04-27 20:52:00,61.0,20.0,-100.00,South,188,10.0,36.0,20,0.00,,,0.00,,2013-04-28 02:52:00,
2013-04-27 21:01:00,61.0,20.0,-100.00,South,188,10.0,36.0,20,0.00,,,0.00,,2013-04-28 03:01:00,
2013-04-27 21:11:00,61.0,20.0,-100.00,South,188,10.0,36.0,20,0.00,,,0.00,,2013-04-28 03:11:00,
2013-04-27 21:42:00,59.0,21.0,-100.00,SSW,195,9.0,19.0,23,0.00,,,0.00,,2013-04-28 03:42:00,
2013-04-27 21:53:00,59.0,21.0,-100.00,SSW,195,9.0,19.0,23,0.00,,,0.00,,2013-04-28 03:53:00,
2013-04-27 22:02:00,59.0,21.0,-100.00,SSW,195,9.0,19.0,23,0.00,,,0.00,,2013-04-28 04:02:00,
2013-04-27 22:13:00,59.0,21.0,-100.00,SSW,195,9.0,19.0,23,0.00,,,0.00,,2013-04-28 04:13:00,
2013-04-27 22:42:00,56.0,24.0,-100.00,NE,41,7.0,13.0,28,0.00,,,0.00,,2013-04-28 04:42:00,
2013-04-27 22:53:00,56.0,24.0,-100.00,NE,41,7.0,13.0,28,0.00,,,0.00,,2013-04-28 04:53:00,
2013-04-27 23:02:00,56.0,24.0,-100.00,NE,41,7.0,13.0,28,0.00,,,0.00,,2013-04-28 05:02:00,
2013-04-27 23:12:00,56.0,24.0,-100.00,NE,41,7.0,13.0,28,0.00,,,0.00,,2013-04-28 05:12:00,
2013-04-27 23:42:00,53.0,28.0,-100.00,NE,41,11.0,21.0,39,0.00,,,0.00,,2013-04-28 05:42:00,
2013-04-27 23:52:00,53.0,28.0,-100.00,NE,41,11.0,21.0,39,0.00,,,0.00,,2013-04-28 05:52:00,